Location: Newark
(41.0400°S, 62.7845°W)
Time: 09:17:44
(UTC+00:00)

Transit 2A - Pass Details

Date: 30 November 2021
Orbit: 591 x 967 km, 66.7° (Epoch: 19 January)

Event Time Altitude Azimuth Distance (km) Brightness Sun altitude
Rises 18:31:32 0° 284° (WNW) 3,163 9.8 52.8°
Reaches altitude 10° 18:34:55 10° 262° (W) 2,170 9.1 52.2°
Maximum altitude 18:37:51 16° 225° (SW) 1,761 8.4 51.7°
Drops below altitude 10° 18:40:40 10° 188° (S) 2,065 8.3 51.1°
Sets 18:43:46 0° 164° (SSE) 2,930 8.8 50.6°
